Погода в Пуэрто-Пеньяско

Мексика     31°18′44″N   113°32′23″W
темп.,
°C
ветер,
м/с
пор.,
м/с
влажн.,
%
обл.,
%
осадки,
мм/ч
давл.,
гПа
погр.,
м
10 мая, пн
пн1023:00+23ю711610 0.0 1008256
02:00+22ююв710670 0.0 1007330
05:00+22ююв812590 0.0 1007467
08:00+22ююв811560 0.0 1008605
11:00+22ю1012560 0.0 1009566
14:00+23ю99570 0.0 1008467
17:00+23ююв67600 0.0 1007214
20:00+24ююв610640 0.0 1007185
11 мая, вт
вт1123:00+23ююв68690 0.0 1008245
02:00+22ююв67650 0.0 1007298
05:00+22ююв56610 0.0 1008336
08:00+23юв46580 0.0 1011324
11:00+23ю68560 0.0 1011368
14:00+23ююз45510 0.0 1010247
17:00+24юз11460 0.0 1009134
20:00+24ю22500 0.0 100914
12 мая, ср
ср1223:00+23ююз33530 0.0 101030
02:00+23вюв33530 0.0 101037
05:00+23юв44560 0.0 1011102
08:00+24юв44520 0.0 1013118
11:00+24ю33480 0.0 1014193
14:00+25юз33490 0.0 1013191
17:00+26зюз33440 0.0 1011104
20:00+25ююз22490 0.0 101111
13 мая, чт
чт1323:00+24ю22520 0.0 101211
02:00+24юв44480 0.0 101233
05:00+24юв44480 0.0 101233
08:00+24юв33510 0.0 101457
11:00+25ю33500 0.0 1014146
14:00+25юз44510 0.0 1012167
17:00+26юз22430 0.0 101083
20:00+25ю224354 0.0 100911
14 мая, пт
пт1423:00+25ююв44452 0.0 100922
02:00+24ююв45575 0.0 100949
05:00+23юв56620 0.0 1009130
08:00+24ююв57570 0.0 1010180
11:00+24ююв57580 0.0 1010204
14:00+24ю57560 0.0 1008211
17:00+25ююв45510 0.0 1006123
20:00+25юв68590 0.0 1006112